Location: Sungai Lasa
(2.4500°N, 113.4500°E)
Time: 09:21:25
(UTC+00:00)

Daily predictions for brighter satellites

Satellite Brightness Start Highest point End
(mag) Time Altitude Azimuth Time Altitude Azimuth Time Altitude Azimuth
H-II Stage 2 2.6 12:06:34 10° W 12:08:46 35° NNW 12:08:53 35° NNW
Cosmos 540 Rocket 3.3 12:06:52 10° N 12:11:57 72° ENE 12:17:01 10° SSE
ARIANE 5 DEB (SYLDA 5A) 3.9 12:08:03 10° W 12:12:10 83° S 12:19:21 30° E
Hubble Space Telescope 1.6 12:10:05 10° SW 12:13:27 38° SSE 12:13:27 38° SSE
CZ-2C R/B 3.4 12:11:48 10° S 12:13:12 15° SSE 12:13:12 15° SSE
Cosmos 1356 Rocket 4.3 12:10:55 10° SSW 12:14:50 46° W 12:17:12 21° NNW
Delta 142 3.7 12:19:18 10° WNW 12:22:54 62° WSW 12:22:54 62° WSW
Tiangong 0.2 12:20:48 10° WNW 12:22:09 22° WNW 12:22:09 22° WNW
GPS 2-15 Rocket1 4.5 12:23:39 10° NW 12:26:34 30° NNW 12:26:34 30° NNW
Cosmos 1340 4.5 12:32:32 27° WNW 12:33:18 29° W 12:36:32 10° SSW
OAO 3 Rocket 4.2 12:30:59 10° WSW 12:35:09 39° NW 12:35:09 39° NW
Cosmos 1745 Rocket 4.4 12:30:53 10° NNW 12:36:54 58° W 12:42:53 10° S
Okean O Rocket 3.1 12:34:47 10° SSW 12:38:45 35° WSW 12:42:44 10° NW
USA 215 3.1 12:46:09 72° SSE 12:46:56 89° WSW 12:53:29 10° NW
SJ 16-02 3.0 12:42:53 10° SSW 12:45:11 29° SW 12:45:11 29° SW
DELTA 2 R/B (1) 4.1 12:43:14 10° SW 12:47:41 56° WSW 12:47:41 56° WSW
Cosmos 1709 Rocket 4.3 12:56:28 58° SW 12:56:28 58° SW 13:01:31 10° S
Cosmos 1844 Rocket 3.7 12:52:54 10° NW 12:58:07 42° WSW 13:03:21 10° S
Cosmos 2237 Rocket 4.2 12:57:59 10° SW 13:02:22 23° WNW 13:04:25 19° NW
ISO 3.6 12:42:19 10° W 13:03:47 67° NW 13:03:47 67° NW
ATLAS 2AS CENTAUR R/B 4.0 13:19:26 10° NW 13:33:32 - S 13:23:08 30° WNW
ATLAS 5 CENTAUR R/B 3.6 12:57:10 10° WSW 13:36:11 79° NNW 13:36:11 79° NNW
Ariane H10+ 4.3 19:40:15 56° SSW 19:41:39 58° S 20:09:11 10° E
ATLAS 3B CENTAUR R/B 3.6 20:08:46 47° NE 20:08:46 47° NE 20:16:08 10° E
USA 281 3.9 20:05:05 10° SSE 20:09:29 46° SSE 20:09:29 46° SSE
Cosmos 2278 4.3 20:25:57 55° ESE 20:25:57 55° ESE 20:30:40 10° SSE
Meteosat 1 Rocket2 4.3 20:34:41 45° ENE 20:34:41 45° ENE 20:39:09 10° ENE
Atlas Centaur 2 4.2 20:40:19 11° S 20:40:19 11° S 20:40:32 10° S
Cosmos 2322 Rocket 4.4 20:34:54 10° NNE 20:39:12 22° ENE 20:43:28 10° ESE
Centaur AC-112 4.3 20:32:51 10° SW 20:43:33 37° SSE 20:46:46 10° E
Lacrosse 5 3.9 20:48:10 17° SSW 20:48:10 17° SSW 20:49:39 10° S
Okean 1 Rocket 4.3 20:43:43 10° SSE 20:47:50 39° E 20:51:56 10° NNE
Cosmos 2251 Rocket 3.8 20:50:12 56° SSW 20:50:12 56° SSW 20:54:26 10° S
PSLV R/B 4.3 20:48:10 31° NE 20:49:48 49° ESE 20:53:49 10° S
ARGOS Delta rocket 4.1 20:45:33 10° SSE 20:50:52 78° E 20:52:31 46° N
SL-16 R/B 2.8 20:50:45 25° N 20:53:51 53° ENE 20:59:21 10° SSE
Nadezhda 4 Rocket 3.9 20:54:56 10° S 21:01:13 72° W 21:07:31 10° N
Cosmos 2297 Rocket 3.3 20:57:32 10° S 21:02:54 45° ESE 21:08:14 10° NNE
Cosmos 1980 Rocket 4.4 21:08:47 11° SW 21:08:47 11° SW 21:08:58 10° SW
Genesis I 4.1 21:05:05 36° NE 21:05:48 41° ENE 21:09:15 10° SE
Cosmos 2227 Rocket 4.3 21:05:45 10° SSE 21:10:31 28° ESE 21:15:16 10° NE
SL-08 R/B 4.5 21:10:09 10° SSE 21:14:29 41° ENE 21:18:52 10° N
CZ-2C R/B 2.7 21:11:36 10° N 21:15:32 88° WNW 21:19:28 10° SSW
Cosmos 407 Rocket 3.6 21:15:22 45° WNW 21:16:26 53° WSW 21:21:34 10° S
CZ-3 R/B 3.5 20:49:14 10° WSW 21:20:43 51° NW 21:28:56 10° NE
Cosmos 2237 4.2 21:17:02 14° NNW 21:21:59 83° ENE 21:27:41 10° SSE
Cosmos 1140 Rocket 4.1 21:24:35 32° W 21:24:42 32° WSW 21:29:16 10° SSW
Cosmos 397 4.3 21:25:00 10° SSW 21:29:09 58° WNW 21:33:08 10° N
ASC 2 Rocket 4.3 21:28:16 22° SW 21:29:31 26° SSW 21:33:19 10° SE
Cosmos 1461 3.5 21:29:43 35° WNW 21:30:44 40° WSW 21:34:50 10° S
Cosmos 1190 Rocket 4.0 21:32:36 16° NNW 21:36:39 57° WSW 21:41:44 10° S
Fermi 4.2 21:35:37 30° W 21:37:17 49° SSW 21:41:16 10° SE
CZ-2C R/B 4.1 21:34:58 10° SW 21:37:28 16° WSW 21:37:28 16° WSW
SJ-12 4.4 21:34:37 10° N 21:38:24 37° WNW 21:42:11 10° SW
Maqsat-H 3.8 21:37:37 10° SW 21:41:05 29° SSE 21:48:39 10° ESE
ARIANE 5 R/B 2.7 21:40:42 22° SW 21:41:42 34° S 21:44:53 10° ESE
H-2A R/B 2.2 21:37:51 10° NNE 21:43:12 83° ESE 21:48:25 10° S
ARIANE 5 R/B 3.3 21:36:30 19° W 21:43:17 72° N 21:46:53 10° E
Cosmos 1455 2.2 21:42:39 10° SSW 21:46:13 51° W 21:49:48 10° N
Cosmos 1892 4.2 21:46:17 10° NNE 21:49:50 39° E 21:53:22 10° SSE
SEDSat Delta rocket 2.8 21:46:48 10° SW 21:50:51 85° SSE 21:55:11 10° ENE
IKONOS-2 4.4 21:51:00 10° S 21:55:12 71° WSW 21:59:23 10° NNW
Cosmos 1455 Rocket 3.0 21:50:54 10° S 21:55:21 80° W 21:59:47 10° N
ATLAS 3B CENTAUR R/B 3.1 21:48:29 16° WNW 21:55:26 65° SSW 22:02:48 10° SE
Cosmos 1825 4.4 21:56:04 10° NNE 21:59:12 27° E 22:02:21 10° SE
DMSP B5D2-2 4.0 21:55:37 10° S 22:00:50 74° WSW 22:06:04 10° NNW
Cosmos 44 Rocket 3.4 21:57:31 10° NNW 22:02:38 88° WSW 22:07:47 10° SSE
ATLAS 5 CENTAUR R/B 3.5 21:57:40 10° NW 22:02:53 45° NNE 22:22:51 10° E
Cosmos 2026 Rocket 4.5 22:00:59 10° SSW 22:06:33 36° W 22:12:04 10° NNW
Skynet4D Del rocket 4.3 22:04:33 10° NW 22:09:38 45° NNE 22:14:54 10° E
Cosmos 2219 Rocket 3.4 22:05:16 10° N 22:10:38 45° ENE 22:16:01 10° SE
Cosmos 2360 Rocket 2.3 22:05:10 10° NNW 22:10:43 60° WSW 22:16:16 10° S
Cosmos 1939 Rocket 4.2 22:09:07 10° NW 22:11:40 17° WNW 22:14:15 10° WSW
Cosmos 1536 Rocket 4.2 22:08:17 10° NNW 22:12:22 36° W 22:16:29 10° SSW
SKYMED 2 3.6 22:14:35 10° S 22:18:54 68° W 22:23:11 10° NNW
Cosmos 2333 Rocket 2.3 22:13:48 10° NNW 22:19:32 85° WSW 22:25:18 10° SSE
CZ-2D R/B 3.1 22:16:10 10° N 22:19:54 70° W 22:23:39 10° SSW
Cosmos 1992 Rocket 4.2 22:16:33 10° SSW 22:21:33 47° WNW 22:26:32 10° N
